Voltar ao catálogo

TITAN 3C TRANSTAGE DEB

LostHEO
NORAD 26780·DEBRIS·🇺🇸 United States

Lançado Dec 21, 1965 de Cape Canaveral Space Force Station

Loading…

Próximas Passagens (próximas 24 horas)

TLE

ObsoletoSource: Space-Track

Época: Aug 6, 2026, 08:08 UTC

1 26780U 65108AY  26218.33951222 -.00000051  00000-0  00000-0 0  9996
2 26780  26.2820 182.5385 6271802 168.0905 353.5331  2.58801075141782

Acompanhe TITAN 3C TRANSTAGE DEB em tempo real com AllMySat

Download on the App Store